Voltar ao catálogo

COSMOS 1948

GLONASS

AtivoNavegaçãoMEO
NORAD 19165·PAYLOAD·🇷🇺 Russia

Lançado May 21, 1988 de Baikonur Cosmodrome

Loading…

Próximas Passagens (próximas 24 horas)

TLE

AtualizadoSource: Space-Track

Época: Sep 13, 2026, 12:04 UTC

1 19165U 88043C   26256.50338911 -.00000009  00000-0  00000-0 0  9996
2 19165  65.0117  70.3128 0004045 314.6703  22.0207  2.13102771297883

Acompanhe COSMOS 1948 em tempo real com AllMySat

Download on the App Store